When you browse on this site, cookies collect data to enhance your experience and personalize the content and advertising you see.
Visit our Privacy Policy to learn more. By continuing to use the site, you agree to this use of cookies and data.
  • In Slovakia
  • List of Countries
  • For 7 days
  • Water Temperature
  • Weather Map
  • Weather Widgets
  • user-avatar
    Login

    Hourly Weather Neuquén

    Today, 26 January, Sunday

    Time Temperature Precipitation Wind Pressure Humidity
    00:00 +26°C° 0 mm 10 mps 730 mmHg 35%
    01:00 +26°C° 0 mm 10 mps 730 mmHg 37%
    02:00 +24°C° 0 mm 9 mps 730 mmHg 38%
    03:00 +24°C° 0 mm 7 mps 731 mmHg 38%
    04:00 +24°C° 0 mm 6 mps 731 mmHg 39%
    05:00 +26°C° 0 mm 6 mps 731 mmHg 37%
    06:00 +26°C° 0 mm 6 mps 732 mmHg 35%
    07:00 +26°C° 0 mm 6 mps 732 mmHg 33%
    08:00 +28°C° 0 mm 6 mps 733 mmHg 28%
    09:00 +30°C° 0 mm 5 mps 733 mmHg 22%
    10:00 +33°C° 0 mm 5 mps 733 mmHg 17%
    11:00 +34°C° 0 mm 5 mps 733 mmHg 14%
    12:00 +35°C° 0 mm 6 mps 732 mmHg 12%
    13:00 +36°C° 0 mm 6 mps 732 mmHg 10%
    14:00 +36°C° 0 mm 6 mps 732 mmHg 9%
    15:00 +38°C° 0 mm 6 mps 731 mmHg 9%
    16:00 +38°C° 0 mm 6 mps 731 mmHg 8%
    17:00 +35°C° 0 mm 5 mps 731 mmHg 9%
    18:00 +33°C° 0 mm 5 mps 731 mmHg 11%
    19:00 +32°C° 0 mm 4 mps 731 mmHg 12%
    20:00 +29°C° 0 mm 6 mps 732 mmHg 18%
    21:00 +27°C° 0 mm 8 mps 733 mmHg 23%
    22:00 +24°C° 0 mm 9 mps 734 mmHg 29%
    23:00 +23°C° 0 mm 9 mps 734 mmHg 31%

    Tomorrow, 27 January, Monday

    Time Temperature Precipitation Wind Pressure Humidity
    00:00 +21°C° 0 mm 8 mps 735 mmHg 34%
    01:00 +20°C° 0 mm 7 mps 735 mmHg 36%
    02:00 +19°C° 0 mm 6 mps 735 mmHg 40%
    03:00 +17°C° 0 mm 5 mps 735 mmHg 43%
    04:00 +17°C° 0 mm 4 mps 735 mmHg 47%
    05:00 +19°C° 0 mm 5 mps 735 mmHg 43%
    06:00 +20°C° 0 mm 5 mps 736 mmHg 40%
    07:00 +21°C° 0 mm 5 mps 736 mmHg 36%
    08:00 +22°C° 0 mm 5 mps 735 mmHg 33%
    09:00 +25°C° 0 mm 4 mps 735 mmHg 30%
    10:00 +27°C° 0 mm 4 mps 734 mmHg 27%
    11:00 +29°C° 0 mm 4 mps 734 mmHg 24%
    12:00 +30°C° 0 mm 3 mps 733 mmHg 21%
    13:00 +33°C° 0 mm 3 mps 732 mmHg 18%
    14:00 +34°C° 0 mm 3 mps 731 mmHg 17%
    15:00 +35°C° 0 mm 2 mps 730 mmHg 15%
    16:00 +36°C° 0 mm 2 mps 729 mmHg 14%
    17:00 +34°C° 0 mm 2 mps 729 mmHg 16%
    18:00 +31°C° 0 mm 2 mps 729 mmHg 18%
    19:00 +29°C° 0 mm 1 mps 728 mmHg 20%
    20:00 +29°C° 0 mm 2 mps 728 mmHg 22%
    21:00 +28°C° 0 mm 2 mps 728 mmHg 25%
    22:00 +28°C° 0 mm 2 mps 729 mmHg 27%
    23:00 +27°C° 0 mm 3 mps 728 mmHg 28%

    Day after tomorrow, 28 January, Tuesday

    Time Temperature Precipitation Wind Pressure Humidity
    00:00 +27°C° 0 mm 4 mps 728 mmHg 29%
    01:00 +26°C° 0 mm 6 mps 728 mmHg 31%
    02:00 +26°C° 0 mm 6 mps 728 mmHg 33%
    03:00 +24°C° 0 mm 6 mps 728 mmHg 36%
    04:00 +23°C° 0 mm 6 mps 727 mmHg 39%
    05:00 +26°C° 0 mm 8 mps 727 mmHg 37%
    06:00 +27°C° 0 mm 9 mps 728 mmHg 35%
    07:00 +28°C° 0 mm 10 mps 728 mmHg 33%
    08:00 +31°C° 0 mm 9 mps 727 mmHg 30%
    09:00 +32°C° 0 mm 8 mps 727 mmHg 27%
    10:00 +34°C° 0 mm 8 mps 727 mmHg 24%
    11:00 +33°C° 0 mm 7 mps 726 mmHg 27%
    12:00 +32°C° 0 mm 6 mps 726 mmHg 30%
    13:00 +29°C° 0 mm 6 mps 726 mmHg 33%
    14:00 +29°C° 0.1 mm 7 mps 726 mmHg 33%
    15:00 +29°C° 0.1 mm 7 mps 725 mmHg 33%
    16:00 +29°C° 0.1 mm 8 mps 725 mmHg 33%
    17:00 +28°C° 0 mm 9 mps 726 mmHg 29%
    18:00 +28°C° 0 mm 10 mps 726 mmHg 26%
    19:00 +27°C° 0 mm 10 mps 727 mmHg 23%
    20:00 +26°C° 0 mm 10 mps 727 mmHg 22%
    21:00 +23°C° 0 mm 9 mps 728 mmHg 21%
    22:00 +21°C° 0 mm 9 mps 729 mmHg 21%
    23:00 +18°C° 0 mm 8 mps 729 mmHg 32%

    29 January, Wednesday

    Time Temperature Precipitation Wind Pressure Humidity
    00:00 +17°C° 0 mm 7 mps 730 mmHg 43%
    01:00 +15°C° 0 mm 6 mps 730 mmHg 54%
    02:00 +15°C° 0 mm 5 mps 731 mmHg 50%
    03:00 +15°C° 0 mm 5 mps 731 mmHg 46%
    04:00 +14°C° 0 mm 5 mps 732 mmHg 42%
    05:00 +16°C° 0 mm 5 mps 732 mmHg 37%
    06:00 +17°C° 0 mm 5 mps 733 mmHg 31%
    07:00 +19°C° 0 mm 5 mps 733 mmHg 26%
    08:00 +21°C° 0 mm 4 mps 733 mmHg 23%
    09:00 +22°C° 0 mm 3 mps 733 mmHg 20%
    10:00 +25°C° 0 mm 2 mps 733 mmHg 17%
    11:00 +26°C° 0 mm 2 mps 733 mmHg 14%
    12:00 +27°C° 0 mm 3 mps 732 mmHg 11%
    13:00 +29°C° 0 mm 3 mps 732 mmHg 8%
    14:00 +29°C° 0 mm 4 mps 731 mmHg 8%
    15:00 +30°C° 0 mm 4 mps 731 mmHg 7%
    16:00 +30°C° 0 mm 4 mps 730 mmHg 7%
    17:00 +28°C° 0 mm 3 mps 730 mmHg 9%
    18:00 +26°C° 0 mm 2 mps 730 mmHg 11%
    19:00 +24°C° 0 mm 1 mps 730 mmHg 13%
    20:00 +24°C° 0 mm 2 mps 730 mmHg 13%
    21:00 +24°C° 0 mm 3 mps 731 mmHg 12%
    22:00 +23°C° 0 mm 4 mps 731 mmHg 12%
    23:00 +22°C° 0 mm 4 mps 731 mmHg 14%

    30 January, Thursday

    Time Temperature Precipitation Wind Pressure Humidity
    00:00 +21°C° 0 mm 4 mps 731 mmHg 16%
    01:00 +21°C° 0 mm 4 mps 731 mmHg 18%
    02:00 +20°C° 0 mm 4 mps 730 mmHg 21%
    03:00 +19°C° 0 mm 4 mps 730 mmHg 23%
    04:00 +18°C° 0 mm 4 mps 730 mmHg 26%
    05:00 +20°C° 0 mm 4 mps 731 mmHg 24%
    06:00 +21°C° 0 mm 4 mps 731 mmHg 22%
    07:00 +23°C° 0 mm 5 mps 731 mmHg 21%
    08:00 +26°C° 0 mm 5 mps 731 mmHg 17%
    09:00 +28°C° 0 mm 6 mps 731 mmHg 13%
    10:00 +32°C° 0 mm 6 mps 731 mmHg 10%
    11:00 +33°C° 0 mm 6 mps 730 mmHg 9%
    12:00 +34°C° 0 mm 6 mps 730 mmHg 8%
    13:00 +35°C° 0 mm 7 mps 729 mmHg 7%
    14:00 +36°C° 0 mm 7 mps 728 mmHg 8%
    15:00 +38°C° 0 mm 7 mps 728 mmHg 9%
    16:00 +38°C° 0 mm 7 mps 727 mmHg 10%
    17:00 +36°C° 0 mm 7 mps 728 mmHg 12%
    18:00 +34°C° 0 mm 7 mps 728 mmHg 15%
    19:00 +33°C° 0 mm 7 mps 728 mmHg 18%
    20:00 +30°C° 0 mm 7 mps 729 mmHg 22%
    21:00 +28°C° 0 mm 7 mps 730 mmHg 27%
    22:00 +27°C° 0 mm 7 mps 730 mmHg 32%
    23:00 +26°C° 0 mm 6 mps 730 mmHg 35%

    31 January, Friday

    Time Temperature Precipitation Wind Pressure Humidity
    00:00 +23°C° 0 mm 5 mps 730 mmHg 38%
    01:00 +22°C° 0 mm 4 mps 730 mmHg 42%
    02:00 +22°C° 0 mm 4 mps 730 mmHg 44%
    03:00 +21°C° 0 mm 3 mps 731 mmHg 46%
    04:00 +21°C° 0 mm 3 mps 731 mmHg 48%
    05:00 +22°C° 0 mm 3 mps 731 mmHg 44%
    06:00 +25°C° 0 mm 4 mps 731 mmHg 40%
    07:00 +26°C° 0 mm 5 mps 731 mmHg 35%
    08:00 +28°C° 0 mm 5 mps 731 mmHg 32%
    09:00 +29°C° 0 mm 4 mps 731 mmHg 28%
    10:00 +31°C° 0 mm 3 mps 731 mmHg 25%
    11:00 +33°C° 0 mm 3 mps 731 mmHg 23%
    12:00 +34°C° 0 mm 3 mps 730 mmHg 22%
    13:00 +35°C° 0 mm 3 mps 730 mmHg 20%
    14:00 +36°C° 0 mm 3 mps 729 mmHg 19%
    15:00 +36°C° 0 mm 3 mps 729 mmHg 17%
    16:00 +37°C° 0 mm 2 mps 728 mmHg 16%
    17:00 +35°C° 0 mm 2 mps 728 mmHg 18%
    18:00 +34°C° 0 mm 3 mps 728 mmHg 20%
    19:00 +31°C° 0 mm 3 mps 728 mmHg 22%
    20:00 +32°C° 0 mm 4 mps 728 mmHg 23%
    21:00 +30°C° 0 mm 5 mps 729 mmHg 24%
    22:00 +29°C° 0 mm 5 mps 729 mmHg 25%
    23:00 +28°C° 0 mm 6 mps 729 mmHg 27%
    Show more